Regional Weather Roundup
Issued by NWS

Home | Current Version | Previous Version | Graphics & Text | Print | Product List | Glossary Off
Versions: 1 2 3 4 5 6 7 8 9 10 11 12 13 14 15 16 17 18 19 20 21 22 23 24 25 26 27 28 29 30 31 32 33 34 35 36 37 38 39 40 41 42 43 44 45 46 47 48 49 50

000
ASUS43 KDTX 211401
RWRMI
MICHIGAN HOURLY REGIONAL WEATHER ROUNDUP
NATIONAL WEATHER SERVICE DETROIT/PONTIAC MI
900 AM EST WED FEB 21 2018

NOTE: "FAIR" INDICATES FEW OR NO CLOUDS BELOW 12,000 FEET WITH NO
SIGNIFICANT WEATHER AND/OR OBSTRUCTION TO VISIBILITY.

MIZ047>049-052>055-059>063-066>070-074>076-081>083-211500-
SOUTHEAST LOWER MICHIGAN

CITY           SKY/WX    TMP DP  RH WIND       PRES   REMARKS
ADRIAN         LGT RAIN  36  33  89 N12       30.35R WCI  28
ALMA           CLOUDY    32  32  97 NW7       30.39R WCI  26
ANN ARBOR      LGT RAIN  36  34  92 NW10      30.32R WCI  28
BAD AXE        CLOUDY    32  31  97 N12       30.35R WCI  23
CARO           CLOUDY    34  32  92 NW12      30.36R WCI  25
DETROIT CITY   LGT RAIN  39  36  89 NW9       30.32R WCI  33
DETROIT        LGT RAIN  39  36  89 N10       30.32R WCI  32
FLINT          CLOUDY    34  32  92 NW12      30.34R WCI  25
GROSSE ILE     LGT RAIN  39  37  92 N12       30.31R WCI  32
HILLSDALE      MIX PCPN  32  30  93 NW14      30.33R WCI  22
HOWELL         CLOUDY    34  33  96 NW9       30.34R WCI  27

CITY           SKY/WX    TMP DP  RH WIND       PRES   REMARKS
JACKSON        CLOUDY    34  32  92 NW12G18   30.36R WCI  25
LAMBERTVILLE   LGT RAIN  38  36  90 NW8G16    30.34R WCI  32
LANSING        CLOUDY    33  31  92 NW10      30.38R WCI  25
LAPEER         DRIZZLE   35  34  96 NW8       30.33R WCI  29
MASON          CLOUDY    34  31  88 NW8G20    30.36R WCI  27
MONROE         LGT RAIN  39  37  91 NW9       30.32R WCI  33
MT. CLEMENS    RAIN      38  38 100 N13       30.31R WCI  30
PONTIAC        LGT RAIN  35  34  96 NW15      30.31R WCI  25
PORT HOPE        N/A     32  28  85 N9        30.33R WCI  24
PORT HURON     LGT RAIN  36  34  93 N8        30.33R WCI  29
TRI CITIES     CLOUDY    33  28  81 N12       30.37R WCI  24
MIDLAND        CLOUDY    32  29  88 N6        30.37R WCI  26
TROY           MIX PCPN  38  36  92 NW6       30.34R WCI  34
SAGINAW HB     PTSUNNY   32  30  93 NW12      30.37R WCI  23
$$
MIZ043>046-050>051-056>058-064>065-071>073-077>080-211500-
SOUTHWEST LOWER MICHIGAN

CITY           SKY/WX    TMP DP  RH WIND       PRES   REMARKS
BATTLE CREEK   CLOUDY    32  30  92 NW9       30.38R WCI  24
BENTON HARBOR  CLOUDY    30  25  81 N9        30.44R WCI  22
BIG RAPIDS     CLOUDY    28  23  79 N9        30.38R WCI  20
COLDWATER      CLOUDY    32  32 100 NW9       30.36R WCI  24
FREMONT        CLOUDY    30  24  77 NW12      30.41R WCI  20
HOLLAND        CLOUDY    31  26  82 N13G18    30.43R WCI  21
GRAND RAPIDS   CLOUDY    32  28  85 NW10      30.41R WCI  24
IONIA          PTSUNNY   32  29  89 NW8       30.39R WCI  25
KALAMAZOO      CLOUDY    32  28  85 N13       30.39R WCI  22
LUDINGTON      CLOUDY    28  23  82 NW9G16    30.44R WCI  19
MARSHALL       CLOUDY    32  32  99 NW7       30.38R WCI  26
MOUNT PLEASANT CLOUDY    32  28  86 N7        30.38R WCI  26
MUSKEGON       CLOUDY    31  23  72 N12       30.44R WCI  22
SOUTH HAVEN    CLOUDY    31  28  86 N8        30.43R WCI  24
$$
MIZ016>042-211500-
NORTHERN LOWER MICHIGAN

CITY           SKY/WX    TMP DP  RH WIND       PRES   REMARKS
ALPENA         PTSUNNY   26  19  74 NW14G22   30.37R WCI  14
BEAVER ISLAND  FLURRIES  22  15  75 NW8       30.43R WCI  13
BELLAIRE       CLOUDY    25  20  81 N5        30.43R WCI  20
CADILLAC       CLOUDY    25  23  92 NW8       30.35R WCI  16
CHARLEVOIX     CLOUDY    24  17  76 NW9       30.45R WCI  14
FRANKFORT      CLOUDY    26  20  77 NW6       30.44R WCI  20
GAYLORD        CLOUDY    21  19  92 NW10      30.35R WCI  10
GRAYLING       CLOUDY    24  20  86 NW8       30.36R WCI  15
HARBOR SPRINGS FLURRIES  23  16  75 NW6       30.41R WCI  15
HOUGHTON LAKE  CLOUDY    26  20  77 NW16      30.36R WCI  14
MANISTEE       CLOUDY    27  21  78 NW9       30.44R WCI  18
OSCODA         CLOUDY    29  26  87 NW7       30.36R WCI  22
PELLSTON       CLOUDY    21  14  74 NW15      30.42R WCI   8
ROGERS CITY    CLOUDY    24  19  78 NW14      30.39R WCI  12
TRAVERSE CITY  CLOUDY    26  19  74 NW13      30.42R WCI  15
$$
MIZ007>008-015-211500-
EASTERN UPPER MICHIGAN

CITY           SKY/WX    TMP DP  RH WIND       PRES   REMARKS
KINROSS        LGT SNOW  16  13  88 N9        30.38R FOG     WCI   4
MACKINAC ISLAN LGT SNOW  19  14  79 NW7       30.40R WCI  10
NEWBERRY       LGT SNOW  17  16  95 W3        30.39R
S. S. MARIE    CLOUDY    18  12  77 NW9       30.38R WCI   7
MUNISING         N/A     19  14  81 VRB7      30.43R WCI  10
$$
MIZ004>006-011>014-085-211500-
CENTRAL UPPER MICHIGAN

CITY           SKY/WX    TMP DP  RH WIND       PRES   REMARKS
MANISTIQUE     FLURRIES  19  12  76 W7        30.43R WCI   9
ESCANABA       PTSUNNY   17  11  77 NW7       30.46R WCI   8
MENOMINEE      FAIR      17  10  74 NW7       30.49R WCI   8
$$
MIZ001>003-009>011-084-211500-
WESTERN UPPER MICHIGAN

CITY           SKY/WX    TMP DP  RH WIND       PRES   REMARKS
IRON MOUNTAIN  FAIR      11   5  77 W8        30.41R WCI  -1
HOUGHTON       LGT SNOW  13   6  74 W15       30.39R WCI  -3
COPPER HARBOR    N/A     17  11  77 VRB5      30.40R WCI  10
IRONWOOD       FAIR       4  -1  80 SW9       30.45R WCI -10
$$

ABBREVIATIONS USED IN REMARKS
   TC - TEMPERATURE IN CELSIUS
  WCI - WIND CHILL INDEX
   HX - HEAT INDEX
  VSB - VISIBILITY





USA.gov is the U.S. government's official web portal to all federal, state and local government web resources and services.